Back to catalog

THOR AGENA B R/B

AlivePO
NORAD 426·ROCKET BODY·🇺🇸 United States

Launched Sep 29, 1962 from Vandenberg Space Force Base

Loading…

Next Passes (next 24 hours)

TLE

FreshSource: Space-Track

Epoch: Sep 5, 2026, 13:50 UTC

1 00426U 62049B   26248.57670201  .00000045  00000-0  41729-4 0  9999
2 00426  80.4725 188.6815 0018464  24.1798 148.6882 13.68767296191127

Track THOR AGENA B R/B in real time with AllMySat

Download on the App Store